Vancouver, WA
on Wednesday, November 28, 2012

Wednesday
Previous Day Next Day
Daily Summary
 ActualAverageRecord
Temperature
Mean Temperature °F 44°F  
Max Temperature 46°F 50°F 59°F (1907)
Min Temperature 35°F 37°F 6°F (1896)
Degree Days
Heating Degree Days 24    
Month to date heating degree days 470  
Since 1 July heating degree days 789  
Cooling Degree Days 0    
Month to date cooling degree days 0  
Year to date cooling degree days 398  
Moisture
Dew Point 35°F   
Average Humidity 81    
Maximum Humidity 92    
Minimum Humidity 70    
Precipitation
Precipitation 0.07 in 0.22 in 1.92 in (1995)
Month to date precipitation 6.19 5.43  
Year to date precipitation 37.35 31.89  
Snow
Snow 0.00 in in in ()
Month to date snowfall 0.0  
Snow Depth 0.00 in   
Wind
Wind Speed 4 mph   
Max Wind Speed 15 mph   
Max Gust Speed 24 mph   
Visibility 10 miles   
Events Rain   

Key: T is trace of precipitation, MM is missing value
Source: NWS Daily Summary
Time(PST)TemperatureDew PointHumidity Pressure Visibility Wind DirectionWind SpeedGust SpeedPrecipitationEvents Conditions
12:53 AM 37.9°F 33.1°F 83% 29.88 in 10.0 miles Calm Calm - N/A   Clear
1:53 AM 36.0°F 33.1°F 89% 29.86 in 10.0 miles Calm Calm - N/A   Clear
2:53 AM 37.0°F 34.0°F 89% 29.83 in 9.0 miles Calm Calm - N/A   Clear
3:53 AM 37.9°F 34.0°F 86% 29.81 in 9.0 miles Calm Calm - N/A   Mostly Cloudy
4:53 AM 39.9°F 34.0°F 79% 29.78 in 10.0 miles NE 6.9 mph - N/A   Mostly Cloudy
5:53 AM 39.9°F 34.0°F 79% 29.76 in 10.0 miles Calm Calm - N/A   Overcast
6:53 AM 41.0°F 34.0°F 76% 29.76 in 10.0 miles Calm Calm - N/A   Overcast
7:53 AM 43.0°F 34.0°F 71% 29.74 in 10.0 miles Calm Calm - N/A   Overcast
8:53 AM 42.1°F 36.0°F 79% 29.71 in 10.0 miles Calm Calm - 0.02 in Rain Light Rain
9:53 AM 45.0°F 35.1°F 68% 29.70 in 10.0 miles ESE 8.1 mph - 0.00 in   Overcast
10:53 AM 44.1°F 37.0°F 76% 29.69 in 10.0 miles ESE 5.8 mph - 0.03 in Rain Light Rain
11:53 AM 45.0°F 39.0°F 80% 29.67 in 10.0 miles South 5.8 mph - 0.01 in   Overcast
12:53 PM 46.0°F 37.0°F 71% 29.63 in 10.0 miles Calm Calm - 0.00 in   Mostly Cloudy
1:53 PM 46.0°F 37.9°F 73% 29.62 in 10.0 miles SE 5.8 mph - N/A   Overcast
2:53 PM 44.1°F 35.1°F 71% 29.65 in 10.0 miles SE 5.8 mph - 0.00 in Rain Light Rain
3:53 PM 44.1°F 35.1°F 71% 29.67 in 10.0 miles ESE 9.2 mph - 0.00 in   Mostly Cloudy
4:53 PM 43.0°F 35.1°F 74% 29.70 in 10.0 miles ESE 11.5 mph - 0.00 in   Overcast
5:53 PM 44.1°F 35.1°F 71% 29.73 in 10.0 miles SE 8.1 mph - 0.00 in   Overcast
6:53 PM 44.1°F 36.0°F 73% 29.73 in 10.0 miles SE 6.9 mph - N/A   Overcast
7:53 PM 43.0°F 36.0°F 76% 29.75 in 10.0 miles ESE 10.4 mph - 0.01 in   Overcast
8:53 PM 44.1°F 37.0°F 76% 29.73 in 10.0 miles ESE 11.5 mph - N/A   Overcast
9:53 PM 43.0°F 36.0°F 76% 29.74 in 10.0 miles SE 6.9 mph - N/A   Overcast
10:53 PM 43.0°F 36.0°F 76% 29.74 in 10.0 miles SSE 3.5 mph - N/A   Mostly Cloudy
11:53 PM 43.0°F 36.0°F 76% 29.72 in 10.0 miles Calm Calm - N/A   Partly Cloudy
Moon Phase
Nov. 28 Dec. 06 Dec. 13 Dec. 20 Dec. 28
Sunrise:07:27 AM (PST) Moon Rise:04:48 PM (PST)11/28
Sunset:04:29 PM (PST) Moon Set:07:30 AM (PST)11/28

Copyright © 2014 The Weather Underground, Inc.